[[{"header":{"parameterUnit":"m.s-1","parameterCategory":1,"la1":30.2991,"la2":30.254,"lo1":-89.0895,"lo2":-89.0444,"dy":0.0017,"dx":0.0017,"nx":28,"ny":28,"refTime":"2024-12-01T03:00:00:Z","depth":0,"parameterNumber":2,"parameterNumberName":"U-component_of_WINDS"},"data":[0,0,0,0,0,0,0,0,0,0,0,0,0,0,0,0,0,0,0,0,0,0,0,0,0,0,0,0,0,0,0,0,0,0,0,0,0,0,0,0,0,0,0,0,0,0,0,0,0,0,0,0,0,0,0,0,0,0,-2.2884,-2.2885,0,-2.2953,-2.2954,-2.2954,-2.2944,-2.2943,-2.2942,-2.294,-2.3009,-2.3011,-2.3014,0,0,0,0,0,0,0,0,0,0,0,0,0,-2.2741,-2.2744,-2.2884,-2.2885,-2.2886,-2.2953,-2.2954,-2.2955,-2.2944,-2.2943,-2.2941,-2.294,-2.3008,-2.3011,-2.3015,0,0,0,0,0,0,0,0,0,0,0,0,0,-2.2806,-2.2745,-2.2884,-2.2889,-2.289,-2.2952,-2.2954,-2.2955,-2.2944,-2.2943,-2.2941,-2.2939,-2.3007,-2.3011,-2.3015,-2.3077,0,0,-2.3028,-2.303,0,0,0,0,0,0,0,0,-2.2802,-2.2811,-2.2887,-2.2888,-2.289,-2.2938,-2.2928,-2.2996,-2.2945,-2.2924,-2.294,-2.2938,-2.2986,-2.2992,-2.3009,-2.308,-2.3083,-2.3029,-2.3031,-2.3033,-2.3034,0,0,0,0,0,0,0,-2.2798,-2.2808,-2.2911,-2.2888,-2.289,-2.2887,-2.2894,-2.2941,-2.2964,-2.2925,-2.2925,-2.2933,-2.2987,-2.3005,-2.301,-2.3084,-2.3029,-2.3032,-2.3035,-2.3037,-2.3208,-2.321,0,0,0,0,0,0,-2.2792,-2.2805,-2.2909,-2.2913,-2.2841,-2.2891,-2.2899,-2.2924,-2.2963,-2.2968,-2.2935,-2.2932,-2.2998,-2.3005,-2.3013,-2.3087,-2.3033,-2.3037,-2.304,-2.3206,-2.3209,-2.3211,0,0,0,0,0,0,-2.2789,-2.2802,-2.2906,-2.2859,-2.2872,-2.2895,-2.2924,-2.2927,-2.2944,-2.297,-2.2974,-2.2949,-2.2997,-2.3007,-2.3061,-2.3089,-2.3039,-2.3043,-2.3204,-2.3207,-2.321,-2.3235,0,0,0,0,0,0,-2.2785,-2.2801,-2.2825,-2.2859,-2.2874,-2.2954,-2.2925,-2.2929,-2.2952,-2.295,-2.2985,-2.2989,-2.2996,-2.3054,-2.3065,-2.3094,-2.3046,-2.3201,-2.3205,-2.3209,-2.3232,-2.3239,-2.3244,0,0,0,0,0,-2.278,-2.2829,-2.2826,-2.2839,-2.2905,-2.2955,-2.2964,-2.2972,-2.2955,-2.2978,-2.2995,-2.2988,-2.3085,-2.306,-2.3072,-2.3103,-2.32,-2.3204,-2.3208,-2.3229,-2.3237,-2.3244,0,0,0,0,0,0,-2.2796,-2.2833,-2.2831,-2.2892,-2.2921,-2.2953,-2.2984,-2.2981,-2.3014,-2.3011,-2.3019,-2.3027,-2.3082,-2.3098,-2.307,-2.3164,-2.314,-2.3147,-2.3151,-2.3159,-2.3165,-2.3159,-2.305,0,0,0,0,0,-2.2807,-2.2845,-2.2876,-2.2927,-2.2942,-2.296,-2.2983,-2.2987,-2.3016,-2.3028,-2.3049,-2.3077,-2.3114,-2.3138,-2.3173,-2.3235,-2.3242,-2.3262,-2.3268,-2.3273,-2.3278,-2.3311,-2.332,-2.3225,-2.3225,-2.3225,0,0,-2.2829,-2.2854,-2.2878,-2.2931,-2.2953,-2.2992,-2.297,-2.3012,-2.3041,-2.3034,-2.3086,-2.3103,-2.3135,-2.3193,-2.322,-2.3208,-2.3307,-2.3279,-2.3283,-2.3285,-2.3317,-2.3326,-2.3334,-2.3228,-2.3228,-2.3227,0,0,-2.2889,-2.2913,-2.2957,-2.2981,-2.3016,-2.3028,-2.3039,-2.3073,-2.3083,-2.3136,-2.3132,-2.3166,-2.323,-2.3252,-2.3272,-2.3342,-2.3336,-2.3354,-2.3385,-2.3417,-2.3425,-2.3432,-2.3455,-2.3463,-2.3359,-2.3359,-2.3359,0,-2.2912,-2.297,-2.2981,-2.3023,-2.3046,-2.3043,-2.3088,-2.311,-2.3155,-2.317,-2.3157,-2.3237,-2.3258,-2.3321,-2.3338,-2.3355,-2.3367,-2.3349,-2.3423,-2.343,-2.3436,-2.3459,-2.3468,-2.3361,-2.3361,-2.3361,-2.3361,0,-2.2996,-2.3037,-2.3069,-2.3113,-2.314,-2.3183,-2.3199,-2.3225,-2.3228,-2.3241,-2.3295,-2.3321,-2.3361,-2.3377,-2.338,-2.3441,-2.3432,-2.3421,-2.3396,-2.3447,-2.3468,-2.3477,-2.3364,-2.3363,-2.3362,-2.3362,0,0,-2.3066,-2.3115,-2.3127,-2.3146,-2.3185,-2.3217,-2.326,-2.33,-2.3322,-2.3353,-2.3389,-2.3443,-2.3433,-2.3456,-2.3462,-2.349,-2.3542,-2.3475,-2.3476,-2.3485,-2.3609,-2.3616,-2.3626,-2.3539,-2.3541,-2.3543,-2.3606,0,-2.3128,-2.3205,-2.3216,-2.3284,-2.3321,-2.332,-2.3357,-2.3385,-2.3399,-2.3432,-2.3448,-2.3486,-2.3471,-2.3485,-2.3513,-2.353,-2.3567,-2.3526,-2.3571,-2.3573,-2.3561,-2.3637,-2.3644,-2.3703,-2.3615,-2.3616,-2.3617,0,-2.321,-2.3244,-2.3316,-2.335,-2.3366,-2.34,-2.3437,-2.347,-2.3501,-2.3509,-2.3535,-2.3537,-2.3582,-2.3557,-2.3617,-2.3589,-2.3609,-2.362,-2.3622,-2.3625,-2.3596,-2.364,-2.3722,-2.373,-2.3631,-2.363,-2.3629,0,-2.3252,-2.3316,-2.3367,-2.3384,-2.3425,-2.3449,-2.3467,-2.3496,-2.352,-2.3553,-2.3568,-2.3606,-2.3626,-2.3655,-2.3667,-2.3648,-2.3726,-2.3703,-2.3733,-2.3733,-2.3748,-2.3746,-2.3832,-2.3764,-2.3764,-2.3764,-2.3763,0,-2.3319,-2.3363,-2.3386,-2.3417,-2.3466,-2.3478,-2.3526,-2.3543,-2.3569,-2.3603,-2.3605,-2.3636,-2.3651,-2.3685,-2.3695,-2.3743,-2.3752,-2.3759,-2.3761,-2.3758,-2.3757,-2.3769,-2.3765,-2.3766,-2.3765,-2.3765,-2.3765,0,-2.3373,-2.3391,-2.3446,-2.3481,-2.349,-2.3524,-2.3554,-2.3584,-2.3598,-2.3641,-2.3652,-2.3675,-2.3715,-2.373,-2.3779,-2.3785,-2.384,-2.384,-2.3829,-2.3829,-2.3858,-2.3855,-2.3953,-2.3966,-2.3892,-2.3892,-2.3893,0,-2.3413,-2.3447,-2.3486,-2.3509,-2.3528,-2.3565,-2.3589,-2.3603,-2.3628,-2.3667,-2.3692,-2.3732,-2.3764,-2.3828,-2.3848,-2.3886,-2.3885,-2.3917,-2.389,-2.3886,-2.3883,-2.388,-2.3883,-2.3921,-2.3922,-2.3922,-2.3923,0,-2.3483,-2.349,-2.3526,-2.3564,-2.3593,-2.3624,-2.3654,-2.3673,-2.3691,-2.3719,-2.376,-2.3786,-2.3836,-2.3875,-2.3914,-2.3931,-2.393,-2.3932,-2.394,-2.3936,-2.3928,-2.3931,-2.3841,-2.3929,-2.3928,-2.3928,-2.3927,-2.3927,-2.353,-2.356,-2.3592,-2.3631,-2.3655,-2.3683,-2.3713,-2.3731,-2.3766,-2.3808,-2.3815,-2.3858,-2.3889,-2.3941,-2.396,-2.3994,-2.3986,-2.3999,-2.4002,-2.4004,-2.4005,-2.3925,-2.4002,-2.4002,-2.4001,-2.4001,-2.4001,0,-2.3599,-2.3619,-2.3655,-2.3697,-2.3728,-2.3726,-2.3759,-2.3784,-2.3823,-2.3852,-2.3884,-2.3932,-2.397,-2.3994,-2.4033,-2.4055,-2.4055,-2.4065,-2.4062,-2.4066,-2.4012,-2.3999,-2.4064,-2.4064,-2.4064,-2.4064,-2.4064,-2.4064,-2.3638,-2.3687,-2.3698,-2.3759,-2.378,-2.3823,-2.3842,-2.3868,-2.3891,-2.3944,-2.3976,-2.3992,-2.4018,-2.4059,-2.4094,-2.41,-2.4113,-2.4123,-2.4128,-2.4076,-2.407,-2.4063,-2.4052,-2.4126,-2.4126,-2.4179,-2.418,-2.418]},{"header":{"parameterUnit":"m.s-1","parameterCategory":1,"la1":30.2991,"la2":30.254,"lo1":-89.0895,"lo2":-89.0444,"dy":0.0017,"dx":0.0017,"nx":28,"ny":28,"refTime":"2024-12-01T03:00:00:Z","depth":0,"parameterNumber":3,"parameterNumberName":"V-component_of_WINDS"},"data":[0,0,0,0,0,0,0,0,0,0,0,0,0,0,0,0,0,0,0,0,0,0,0,0,0,0,0,0,0,0,0,0,0,0,0,0,0,0,0,0,0,0,0,0,0,0,0,0,0,0,0,0,0,0,0,0,0,0,0.0837,0.0836,0,0.0791,0.0791,0.079,0.0694,0.0692,0.069,0.0688,0.0644,0.0645,0.0645,0,0,0,0,0,0,0,0,0,0,0,0,0,0.0843,0.0843,0.0837,0.0836,0.0836,0.0791,0.0791,0.079,0.0694,0.0692,0.0689,0.0687,0.0644,0.0645,0.0646,0,0,0,0,0,0,0,0,0,0,0,0,0,0.0823,0.0843,0.0837,0.0782,0.0777,0.0792,0.0791,0.079,0.0694,0.0691,0.0689,0.0686,0.0644,0.0645,0.0646,0.0711,0,0,0.0649,0.0649,0,0,0,0,0,0,0,0,0.0824,0.0823,0.0791,0.0786,0.078,0.0745,0.0777,0.0764,0.0695,0.0726,0.0688,0.0684,0.068,0.0678,0.0676,0.0709,0.0707,0.0649,0.0649,0.065,0.065,0,0,0,0,0,0,0,0.0826,0.0824,0.0819,0.0791,0.0784,0.0761,0.0755,0.0774,0.072,0.0723,0.0716,0.0712,0.0677,0.0675,0.0674,0.0706,0.0649,0.065,0.065,0.0651,0.0789,0.0792,0,0,0,0,0,0,0.0835,0.0826,0.082,0.0817,0.0795,0.0763,0.0756,0.0759,0.072,0.0711,0.0714,0.0707,0.0675,0.0673,0.0673,0.0746,0.065,0.0651,0.0651,0.0786,0.079,0.0793,0,0,0,0,0,0,0.0835,0.0835,0.0822,0.082,0.0816,0.0766,0.077,0.076,0.0758,0.0713,0.0703,0.0722,0.0673,0.0671,0.0702,0.0743,0.0651,0.0652,0.0783,0.0787,0.0792,0.0893,0,0,0,0,0,0,0.0836,0.0836,0.086,0.0821,0.0817,0.0852,0.0773,0.0761,0.076,0.0751,0.0718,0.071,0.067,0.0701,0.0703,0.0743,0.0653,0.0779,0.0785,0.079,0.0886,0.0901,0.0913,0,0,0,0,0,0.0836,0.0891,0.0861,0.0861,0.0845,0.0854,0.0852,0.0804,0.0764,0.0787,0.0758,0.0711,0.0738,0.0705,0.0706,0.0747,0.0776,0.0783,0.079,0.088,0.0898,0.0913,0,0,0,0,0,0,0.0937,0.0885,0.0851,0.0895,0.088,0.0838,0.0866,0.0825,0.0822,0.0813,0.0755,0.0748,0.0787,0.077,0.0733,0.0808,0.0749,0.0757,0.0817,0.0834,0.0848,0.0851,0.0654,0,0,0,0,0,0.0964,0.0974,0.0929,0.0971,0.0965,0.0918,0.092,0.0884,0.0866,0.086,0.0832,0.0818,0.0823,0.0827,0.083,0.0883,0.0874,0.0912,0.0925,0.0937,0.0944,0.0971,0.0987,0.0816,0.0816,0.0816,0,0,0.102,0.0993,0.1003,0.0991,0.0975,0.0988,0.0913,0.093,0.0939,0.0862,0.0889,0.0869,0.0849,0.0891,0.0908,0.0878,0.0989,0.0946,0.0955,0.0956,0.098,0.0996,0.101,0.0821,0.082,0.0819,0,0,0.1129,0.1109,0.1142,0.1128,0.1104,0.1071,0.108,0.1044,0.1027,0.1053,0.0996,0.1006,0.1016,0.1004,0.0999,0.1103,0.106,0.1106,0.1177,0.1204,0.1218,0.1229,0.1266,0.128,0.1113,0.1113,0.1113,0,0.1202,0.1218,0.1165,0.1185,0.1182,0.1112,0.1145,0.1134,0.1113,0.1112,0.1078,0.1089,0.107,0.1109,0.1134,0.1132,0.114,0.1109,0.122,0.1231,0.1241,0.1276,0.129,0.1119,0.1118,0.1118,0.1117,0,0.1309,0.1322,0.1351,0.1331,0.1331,0.1358,0.131,0.1316,0.1281,0.1252,0.1279,0.1255,0.125,0.1257,0.1223,0.129,0.1272,0.123,0.117,0.1264,0.1296,0.1309,0.1127,0.1125,0.1123,0.1122,0,0,0.148,0.143,0.1442,0.1432,0.14,0.1409,0.1433,0.1428,0.1434,0.1422,0.1441,0.1451,0.1411,0.1406,0.137,0.1394,0.1478,0.1348,0.1347,0.1373,0.155,0.1582,0.1599,0.1448,0.1451,0.1453,0.1552,0,0.1582,0.1619,0.1572,0.162,0.1631,0.1564,0.1585,0.1569,0.1543,0.1549,0.152,0.1528,0.1475,0.1472,0.1492,0.1463,0.1512,0.1455,0.1466,0.1467,0.1473,0.1615,0.1649,0.1744,0.1564,0.1566,0.1568,0,0.1706,0.1698,0.1747,0.1712,0.1714,0.1734,0.1725,0.1732,0.1712,0.1691,0.1685,0.1642,0.1663,0.1605,0.1635,0.1597,0.1599,0.1585,0.1588,0.1587,0.1523,0.1618,0.1773,0.1788,0.1587,0.1585,0.1584,0,0.1826,0.1828,0.1857,0.185,0.181,0.1825,0.181,0.1786,0.1786,0.1779,0.1778,0.1774,0.1772,0.177,0.1727,0.1689,0.1762,0.17,0.1746,0.1747,0.1765,0.1764,0.1922,0.1766,0.1766,0.1766,0.1765,0,0.1944,0.1977,0.191,0.1928,0.1963,0.1908,0.1944,0.1921,0.1902,0.1914,0.1857,0.1871,0.1813,0.1821,0.1787,0.1817,0.1816,0.1801,0.1791,0.1806,0.1808,0.1806,0.1798,0.1769,0.1768,0.1768,0.1767,0,0.2084,0.2041,0.2068,0.2027,0.2018,0.2045,0.2011,0.2026,0.1996,0.2013,0.2014,0.1968,0.1974,0.1931,0.1929,0.1906,0.1952,0.1931,0.1959,0.1952,0.2,0.1996,0.2162,0.2182,0.2014,0.2016,0.2017,0,0.2162,0.2185,0.2147,0.2151,0.2138,0.2145,0.2144,0.2092,0.2094,0.2072,0.2091,0.2091,0.2089,0.2102,0.2069,0.2067,0.2046,0.2105,0.2046,0.2059,0.2047,0.2046,0.2048,0.2117,0.2119,0.2121,0.2122,0,0.2306,0.2283,0.2284,0.2277,0.2277,0.2269,0.2258,0.2265,0.2208,0.2213,0.2218,0.2216,0.2214,0.2216,0.2207,0.2192,0.2148,0.2141,0.2151,0.2166,0.2181,0.2174,0.1992,0.2138,0.2136,0.2135,0.2134,0.2134,0.2417,0.2435,0.241,0.2412,0.2398,0.2389,0.2401,0.2372,0.2375,0.2368,0.2337,0.2348,0.2327,0.2311,0.23,0.2308,0.228,0.2295,0.2299,0.2303,0.2312,0.218,0.2306,0.2306,0.2305,0.2305,0.2304,0,0.2558,0.2538,0.2541,0.2526,0.2529,0.2486,0.2471,0.2476,0.2486,0.2469,0.2468,0.2474,0.2476,0.2442,0.244,0.2452,0.2432,0.2454,0.2452,0.2449,0.2337,0.2328,0.247,0.247,0.247,0.247,0.247,0.247,0.2631,0.2658,0.2633,0.2652,0.2632,0.2641,0.2637,0.2628,0.2614,0.2623,0.2624,0.2601,0.2579,0.2574,0.2574,0.2564,0.2566,0.2594,0.2577,0.2473,0.2457,0.2442,0.2433,0.2595,0.2595,0.2688,0.2689,0.269]}]]